Погода в Смышляевке

Россия / Самарская область     53°15′10″N   50°23′32″E
темп.,
°C
ветер,
м/с
пор.,
м/с
влажн.,
%
обл.,
%
осадки,
мм/ч
давл.,
гПа
погр.,
м
22 октября, пт
пт2201:00+8зюз61488100 0.0 1006513
04:00+9зюз61485100 0.1 1006399
07:00+8юз61384100 0.0 1006384
10:00+10юз81574100 0.0 1005663
13:00+12юз91557100 0.0 1005855
16:00+12юз91660100 0.0 1005873
19:00+12юз8166756 0.0 1007749
22:00+12зюз71569100 0.0 1008636
23 октября, сб
сб2301:00+10зюз613775 0.0 1009423
04:00+9зюз5118854 0.0 1011276
07:00+8юз4109296 0.0 1011243
10:00+11зюз6127580 0.0 1013581
13:00+14зюз612496 0.0 10131521
16:00+14зюз6104995 0.0 10131076
19:00+12юз41157100 0.0 1014298
22:00+11юз1164100 0.1 101329
24 октября, вс
вс2401:00+11ююз61487100 1.3 1010607
04:00+11зюз61190100 3.7 1009737
07:00+10зюз498270 0.8 1010478
10:00+9з696419 0.9 1012821
13:00+10з57505 0.0 10131184
16:00+10з46484 0.0 10131246
19:00+7з2260100 0.0 101420
22:00+6юз226544 0.0 101411
25 октября, пн
пн2501:00+5з1171100 0.0 101410
04:00+5зсз0172100 0.0 101410
07:00+5зсз1173100 0.0 101410
10:00+6ссз336690 0.0 1014370
13:00+6ссз557988 0.0 1015746
16:00+5ссз587187 0.1 1015940
19:00+4ссз7107726 0.1 1018771
22:00+2с8127335 0.1 10201012
26 октября, вт
вт2601:000с714735 0.0 1022742
04:00−1ссз613765 0.0 1024557
07:00−1ссз5118016 0.0 1025437
10:00+1ссз586577 0.0 1027587
13:00+4ссз46450 0.0 1026940
16:00+4зсз45465 0.0 1025847
19:00+2зюз23555 0.0 102528
22:00+1зюз35575 0.0 102473